Regional Weather Roundup
Issued by NWS

Home | Current Version | Previous Version | Text Only | Print | Product List | Glossary On
Versions: 1 2 3 4 5 6 7 8 9 10 11 12 13 14 15 16 17 18 19 20 21 22 23 24 25 26 27 28 29 30 31 32 33 34 35 36 37 38 39 40 41 42 43 44 45 46 47 48 49 50
000
ASUS43 KDMX 091306
RWRIA

WEATHER ROUNDUP FOR IOWA
NATIONAL WEATHER SERVICE DES MOINES IA
700 AM CST FRI DEC 09 2016

NOTE: "FAIR" INDICATES FEW OR NO CLOUDS BELOW 12,000 FEET WITH NO
SIGNIFICANT WEATHER AND/OR OBSTRUCTIONS TO VISIBILITY.

* - THESE STATIONS ARE NOT NWS STATIONS...THUS NOT UNDER NWS
QUALITY CONTROL.  THEY ALSO DO NOT REPORT WEATHER SUCH
AS PRECIPITATION OR FOG.

IAZ001>003-012>014-020>022-031>034-043>046-091400-
   NORTHWEST IOWA

CITY           SKY/WX    TMP DP  RH WIND       PRES   REMARKS
CARROLL *      CLEAR      5   1  85 W5        30.58S WCI  -4
CHEROKEE *     CLOUDY     3   1  90 CALM      30.58S
DENISON *      CLOUDY     5   1  85 CALM      30.56F
LE MARS *      CLOUDY     3   0  85 CALM      30.59S
ORANGE CITY *  CLOUDY     1   0  92 CALM      30.54S
SHELDON *      CLOUDY     1   0  92 W5        30.54S WCI  -8
SIOUX CITY     CLOUDY     5   0  79 W6        30.61S WCI  -6
SPENCER        CLEAR      1  -3  83 W12       30.56S WCI -16
STORM LAKE *   CLEAR      1   0  92 W9        30.55S WCI -14
$$

IAZ055>058-069>071-079>083-090>094-091400-
   SOUTHWEST IOWA

CITY           SKY/WX    TMP DP  RH WIND       PRES   REMARKS
ATLANTIC *     CLEAR      3   1  92 SW3       30.61S
AUDUBON *      CLEAR      3   0  85 CALM      30.58S
CLARINDA *     CLEAR      7   3  85 CALM      30.64F
COUNCIL BLFS * CLOUDY     7   5  92 CALM      30.60S
CRESTON *      CLEAR      5   1  85 W6        30.60S WCI  -6
HARLAN  *      CLOUDY     3   0  85 CALM      30.63S
LAMONI         CLEAR      6   3  87 W6        30.60S WCI  -4
RED OAK *      MOCLDY     7   3  85 CALM      30.63S
SHENANDOAH *   CLEAR      7   5  92 CALM      30.64F
$$

IAZ047>049-059>061-072>074-084-091400-
   CENTRAL IOWA

CITY           SKY/WX    TMP DP  RH WIND       PRES   REMARKS
AMES           PTCLDY     8   6  92 W6        30.60S WCI  -2
ANKENY *       CLEAR      9   5  85 W6        30.62S WCI  -1
BOONE *        CLEAR      7   3  85 W5        30.57S WCI  -2
CHARITON *     CLEAR      9   5  85 W5        30.60R WCI   0
GRINNELL*      FLURRIES  12   8  85 NW5       30.57F WCI   4
KNOXVILLE *    CLEAR      9   3  78 W7        30.59S WCI  -3
MARSHALLTOWN   PTCLDY    11   7  84 NW8       30.57S WCI  -1
NEWTON *       CLOUDY     9   7  92 W7        30.58S WCI  -3
PELLA *        PTCLDY    10   7  85 NW5       30.61S WCI   2
PERRY *          N/A      6   4  91 W6        30.60R WCI  -4
$$

IAZ004>006-015-016-023>025-035-036-091400-
   NORTH CENTRAL IOWA

CITY           SKY/WX    TMP DP  RH WIND       PRES   REMARKS
ALGONA *       CLEAR      7   3  85 VRB5      30.54F WCI  -2
CLARION *      CLOUDY    12   9  85 NW7       30.56S WCI   2
ESTHERVILLE    CLEAR      1  -2  87 W6        30.54S WCI -10
FORT DODGE *   CLOUDY     7   1  78 W5        30.58S WCI  -2
MASON CITY     CLEAR      8   5  87 W8        30.56R WCI  -4
FOREST CITY *    N/A      9   5  85 NW5       30.54S WCI   0
WEBSTER CITY * PTCLDY     5   1  85 W8        30.56S WCI  -8
IOWA FALLS *     N/A      9   6  85 W7        30.57S WCI  -2
$$

IAZ007>011-017>019-026>030-037>042-050>054-066-091400-
   NORTHEAST IOWA

CITY           SKY/WX    TMP DP  RH WIND       PRES   REMARKS
CEDAR RAPIDS   CLEAR     10   9  95 W10       30.56S WCI  -4
CHARLES CITY * CLEAR      9   5  85 NW8       30.54S WCI  -4
CLINTON *      FLURRIES  17  13  84 W12       30.55S WCI   4
DECORAH *      PTCLDY    10   9  92 CALM      30.51S
DUBUQUE        CLEAR     13  10  88 NW10      30.51S WCI   0
MONTICELLO *   CLOUDY    14   9  79 NW10      30.55S WCI   1
OELWEIN *      CLEAR      9   7  92 NW8       30.54S WCI  -4
WATERLOO       CLEAR     10   6  84 W6        30.57R WCI   0
$$

IAZ064-065-067-068-078-091400-
   EAST CENTRAL IOWA

CITY           SKY/WX    TMP DP  RH WIND       PRES   REMARKS
DAVENPORT      CLOUDY    16  11  80 W10       30.56S WCI   4
IOWA CITY      CLEAR     13   8  81 W7        30.61R WCI   3
MUSCATINE *    CLOUDY    16  10  79 W8        30.61S WCI   5
QUAD CITIES    CLOUDY    19  10  68 NW10      30.57S WCI   7
$$

IAZ062-063-075>077-085>089-095>099-091400-
   SOUTHEAST IOWA

CITY           SKY/WX    TMP DP  RH WIND       PRES   REMARKS
BURLINGTON     FLURRIES  19  12  74 N9        30.59R WCI   8
FAIRFIELD *    CLOUDY    18   9  68 NW10      30.59S WCI   6
FORT MADISON * CLOUDY    19  10  68 NW8       30.59F WCI   9
KEOKUK *       FLURRIES  21  12  68 NW9       30.59S WCI  11
OSKALOOSA *    FLURRIES  15  11  85 NW7       30.60S WCI   5
CENTERVILLE *    N/A      9   5  85 CALM      30.61S
OTTUMWA        CLOUDY    16   9  74 NW9       30.58S WCI   4
WASHINGTON *   CLEAR     14   9  79 NW7       30.60F WCI   4
$$

ABBREVIATIONS USED IN REMARKS
   TC - TEMPERATURES IN CELSIUS
  WCI - WIND CHILL INDEX
   HX - HEAT INDEX
  VSB - VISIBILITY
$$





USA.gov is the U.S. government's official web portal to all federal, state and local government web resources and services.